Location: Poughquag
(41.6090°N, 73.6820°W)
Time: 20:37:42
(UTC-05:00)

Transit 2A - Pass Details

Date: 05 December 2023
Orbit: 599 x 953 km, 66.7° (Epoch: 29 February)

Event Time Altitude Azimuth Distance (km) Brightness Sun altitude
Rises 23:40:02 0° 334° (NNW) 2,855 - -70.8°
Reaches altitude 10° 23:42:19 10° 339° (NNW) 1,947 - -70.8°
Maximum altitude 23:46:33 51° 56° (ENE) 769 - -70.8°
Drops below altitude 10° 23:50:54 10° 133° (SE) 2,005 - -70.8°
Sets 23:53:17 0° 139° (SE) 2,949 - -70.8°
